Location: Unspecified
(0.0000°N, 0.0000°E)
Time: 14:11:04
(UTC+00:00)

Kosmos-1333 - Pass Details

Date: 23 May 2026
Orbit: 964 x 1010 km, 82.9° (Epoch: 5 June)

Event Time Altitude Azimuth Distance (km) Brightness Sun altitude
Exits shadow 18:54:08 15° 88° (E) 2,411 8.5 -13.4°
Drops below altitude 10° 18:57:03 10° 60° (ENE) 2,756 9.0 -14.1°
Sets 19:00:49 0° 38° (NE) 3,710 9.9 -14.9°
